Regional Weather Roundup
Issued by NWS

Home | Current Version | Previous Version | Graphics & Text | Print | Product List | Glossary On
Versions: 1 2 3 4 5 6 7 8 9 10 11 12 13 14 15 16 17 18 19 20 21 22 23 24 25 26 27 28 29 30 31 32 33 34 35 36 37 38 39 40 41 42 43 44 45 46 47 48 49
000
ASUS43 KDMX 220107
RWRIA

WEATHER ROUNDUP FOR IOWA
NATIONAL WEATHER SERVICE DES MOINES IA
800 PM CDT SUN SEP 21 2014

NOTE: "FAIR" INDICATES FEW OR NO CLOUDS BELOW 12,000 FEET WITH NO
SIGNIFICANT WEATHER AND/OR OBSTRUCTIONS TO VISIBILITY.

* - THESE STATIONS ARE NOT NWS STATIONS...THUS NOT UNDER NWS
QUALITY CONTROL.  THEY ALSO DO NOT REPORT WEATHER SUCH
AS PRECIPITATION OR FOG.

IAZ001>003-012>014-020>022-031>034-043>046-220200-
   NORTHWEST IOWA

CITY           SKY/WX    TMP DP  RH WIND       PRES   REMARKS
CARROLL *      CLEAR     55  50  82 N7        30.21S
CHEROKEE *     CLEAR     57  52  82 CALM      30.23R
DENISON *      CLEAR     61  50  67 CALM      30.21R
LE MARS *        N/A     59  52  77 CALM      30.23S
ORANGE CITY *  CLEAR     64  46  52 N5        30.24R
SHELDON *      CLEAR     55  50  82 NE5       30.22S
SIOUX CITY     CLEAR     62  48  60 N3        30.23R
SPENCER        CLEAR     57  47  69 N7        30.23R
STORM LAKE *   CLEAR     57  52  82 N6        30.22S
$$

IAZ055>058-069>071-079>083-090>094-220200-
   SOUTHWEST IOWA

CITY           SKY/WX    TMP DP  RH WIND       PRES   REMARKS
ATLANTIC *     CLEAR     59  50  72 N5        30.21R
AUDUBON *      CLEAR     57  48  72 CALM      30.23R
CLARINDA *     CLEAR     57  52  82 CALM      30.22R
COUNCIL BLFS * CLEAR     61  50  67 N5        30.21R
CRESTON *      CLEAR     59  48  67 N7        30.21R
HARLAN  *      CLEAR     59  52  77 CALM      30.25R
LAMONI         CLEAR     59  50  72 N6        30.19R
RED OAK *      CLEAR     61  50  67 N7        30.21S
SHENANDOAH *   CLEAR     59  52  77 N5        30.22R
$$

IAZ047>049-059>061-072>074-084-220200-
   CENTRAL IOWA

CITY           SKY/WX    TMP DP  RH WIND       PRES   REMARKS
AMES           CLEAR     60  49  66 N8        30.19R
ANKENY *       CLEAR     59  50  72 CALM      30.19R
CHARITON *     CLEAR     57  50  77 N6        30.19R
DES MOINES     PTCLDY    63  48  58 N6        30.18R
GRINNELL*      CLEAR     55  48  76 NW5       30.18R
KNOXVILLE *    CLEAR     61  48  63 N6        30.17R
MARSHALLTOWN   CLEAR     56  48  74 N7        30.18R
PELLA *        CLEAR     57  48  72 NW5       30.19R
PERRY *          N/A     61  48  63 N6        30.20S
$$

IAZ004>006-015-016-023>025-035-036-220200-
   NORTH CENTRAL IOWA

CITY           SKY/WX    TMP DP  RH WIND       PRES   REMARKS
ALGONA *       CLEAR     57  50  77 N7        30.22R
CLARION *        N/A     57  50  77 N6        30.21R
ESTHERVILLE    CLEAR     55  48  77 N7        30.22R
FORT DODGE *   CLEAR     57  46  67 CALM      30.22R
MASON CITY     CLEAR     55  49  80 NW9       30.21R
FOREST CITY *  CLEAR     55  48  76 N6        30.20R
IOWA FALLS *     N/A     55  48  76 NW3       30.20R
$$

IAZ007>011-017>019-026>030-037>042-050>054-066-220200-
   NORTHEAST IOWA

CITY           SKY/WX    TMP DP  RH WIND       PRES   REMARKS
CEDAR RAPIDS   CLEAR     55  49  80 NW6       30.15R
CHARLES CITY * CLEAR     54  48  82 NW5       30.18S
CLINTON *      CLEAR     55  46  71 N7        30.15R
DECORAH *      CLEAR     55  46  71 N7        30.16R
DUBUQUE        CLEAR     54  47  77 NW9       30.15R
MONTICELLO *   CLEAR     55  48  76 N6        30.15R
OELWEIN *      CLEAR     55  48  76 N3        30.18R
WATERLOO       CLEAR     54  47  77 NW6       30.17R
$$

IAZ064-065-067-068-078-220200-
   EAST CENTRAL IOWA

CITY           SKY/WX    TMP DP  RH WIND       PRES   REMARKS
DAVENPORT      CLEAR     55  48  77 NW6       30.14R
IOWA CITY        N/A     59  49  69 NW5       30.16R
MT. PLEASANT * CLOUDY    63  50  63 NW5       30.16R
MUSCATINE *    PTCLDY    61  50  67 NW7       30.15R
QUAD CITIES    PTCLDY    61  51  70 NW7       30.12R
$$

IAZ062-063-075>077-085>089-095>099-220200-
   SOUTHEAST IOWA

CITY           SKY/WX    TMP DP  RH WIND       PRES   REMARKS
BURLINGTON     CLEAR     58  50  75 NW6       30.14R
FAIRFIELD *    CLEAR     57  50  77 NW5       30.16S
FORT MADISON * CLEAR     57  52  82 W5        30.16R
KEOKUK *       CLEAR     59  52  77 N3        30.15R
OSKALOOSA *      N/A     55  50  82 NW7       30.18R
CENTERVILLE *  CLEAR     55  50  82 NW3       30.19R
OTTUMWA        CLEAR     55  48  77 NW8       30.17R
WASHINGTON *   MOCLDY    59  52  77 NW5       30.16R
$$

ABBREVIATIONS USED IN REMARKS
   TC - TEMPERATURES IN CELSIUS
  WCI - WIND CHILL INDEX
   HX - HEAT INDEX
  VSB - VISIBILITY
$$



USA.gov is the U.S. government's official web portal to all federal, state and local government web resources and services.